Погода в Хуторке

Россия / Челябинская область     54°22′19″N   61°31′41″E
темп.,
°C
ветер,
м/с
пор.,
м/с
влажн.,
%
обл.,
%
осадки,
мм/ч
давл.,
гПа
погр.,
м
26 февраля, пт
пт2623:00−25зюз22880 0.0 103120
02:00−26ююз238019 0.0 103020
05:00−27ююз22819 0.0 103019
08:00−28ю23940 0.0 103019
11:00−24ю349611 0.0 1030174
14:00−22ю349223 0.0 1029259
17:00−23ю349322 0.0 1028106
20:00−27ю449444 0.0 102951
27 февраля, сб
сб2723:00−27ю349430 0.0 102854
02:00−27ю44978 0.0 102668
05:00−28ююв469935 0.0 102593
08:00−27ююв489987 0.0 1022175
11:00−21ююв599694 0.1 1019390
14:00−15юв71194100 0.6 1016638
17:00−10ююв71294100 1.8 1013875
20:00−10ююв61294100 0.4 1010578
28 февраля, вс
вс2823:00−9ююв51095100 1.0 1008465
02:00−9юв4895100 0.6 1006286
05:00−10вюв349698 0.8 100594
08:00−10в229792 0.1 100422
11:00−7всв229496 0.3 1004171
14:00−5св2393100 0.1 1004288
17:00−6св3595100 0.1 1004320
20:00−7ссв3696100 0.5 1005183
1 марта, пн
пн123:00−9ссв479599 1.1 1007233
02:00−11ссв5895100 0.6 1008285
05:00−14с589599 0.9 1010264
08:00−16с499584 0.1 1012273
11:00−15с469386 0.2 1014330
14:00−14с3591100 0.0 1016399
17:00−14с3492100 0.1 1018396
20:00−16с229697 0.1 102024
2 марта, вт
вт223:00−20ссз239880 0.1 102120
02:00−22сз22970 0.0 102120
05:00−22з22960 0.0 102120
08:00−22юз33960 0.0 102021
11:00−17юз46930 0.0 1019206
14:00−13ююз47920 0.0 1017279
17:00−13ююз489331 0.0 1015243
20:00−15ююз489488 0.0 1014133